CEB425 RPMD-RPLL

Flight info

Callsign CEB425
Flight time N/A
Altitude 38000
Route ANKIN3R ANKIN B473 LAIYA LAIYA5R
Aircraft A339/H-SADE1E2E3GHIJ3J5M1P2RWXY/LB2D1

Departure

Time 2026-05-04 12:34
Airport Francisco Bangoy International Airport (RPMD)

Arrival

Time N/A
Airport Ninoy Aquino International Airport (RPLL)
Time Latitude Longitude Altitude Speed Heading
2026-05-04 11:22 7.12983 125.64607 121 ft 0 kts 319°
2026-05-04 12:20 7.12982 125.64608 121 ft 1 kts 319°
2026-05-04 12:21 7.12971 125.64618 121 ft 1 kts 318°
2026-05-04 12:21 7.12964 125.64625 121 ft 2 kts 316°
2026-05-04 12:21 7.12954 125.64636 121 ft 2 kts 298°
2026-05-04 12:21 7.12948 125.64650 121 ft 2 kts 285°
2026-05-04 12:22 7.12945 125.64665 121 ft 2 kts 272°
2026-05-04 12:22 7.12946 125.64679 121 ft 2 kts 259°
2026-05-04 12:22 7.12950 125.64694 121 ft 2 kts 245°
2026-05-04 12:22 7.12958 125.64707 121 ft 1 kts 232°
2026-05-04 12:23 7.12961 125.64712 121 ft 0 kts 229°
2026-05-04 12:23 7.12962 125.64712 121 ft 0 kts 229°
2026-05-04 12:26 7.12960 125.64710 121 ft 1 kts 229°
2026-05-04 12:26 7.12951 125.64700 121 ft 0 kts 229°
2026-05-04 12:26 7.12944 125.64691 121 ft 2 kts 229°
2026-05-04 12:26 7.12927 125.64671 121 ft 4 kts 229°
2026-05-04 12:27 7.12900 125.64640 121 ft 6 kts 229°
2026-05-04 12:27 7.12864 125.64599 121 ft 8 kts 229°
2026-05-04 12:27 7.12822 125.64548 121 ft 10 kts 230°
2026-05-04 12:27 7.12773 125.64488 121 ft 11 kts 230°
2026-05-04 12:28 7.12735 125.64449 121 ft 5 kts 211°
2026-05-04 12:28 7.12694 125.64452 121 ft 7 kts 149°
2026-05-04 12:28 7.12648 125.64489 121 ft 9 kts 140°
2026-05-04 12:28 7.12596 125.64535 121 ft 10 kts 139°
2026-05-04 12:29 7.12544 125.64555 121 ft 7 kts 196°
2026-05-04 12:29 7.12497 125.64513 121 ft 10 kts 229°
2026-05-04 12:29 7.12441 125.64450 121 ft 13 kts 230°
2026-05-04 12:29 7.12373 125.64369 122 ft 16 kts 230°
2026-05-04 12:30 7.12289 125.64271 122 ft 19 kts 229°
2026-05-04 12:30 7.12196 125.64161 122 ft 22 kts 229°
2026-05-04 12:30 7.12089 125.64040 122 ft 23 kts 229°
2026-05-04 12:30 7.11977 125.63909 122 ft 24 kts 229°
2026-05-04 12:31 7.11867 125.63782 122 ft 23 kts 229°
2026-05-04 12:31 7.11785 125.63687 122 ft 12 kts 229°
2026-05-04 12:31 7.11754 125.63616 122 ft 9 kts 270°
2026-05-04 12:31 7.11742 125.63551 122 ft 8 kts 236°
2026-05-04 12:32 7.11697 125.63547 122 ft 6 kts 135°
2026-05-04 12:32 7.11721 125.63610 122 ft 0 kts 52°
2026-05-04 12:33 7.11722 125.63612 122 ft 1 kts 52°
2026-05-04 12:33 7.11782 125.63685 122 ft 41 kts 49°
2026-05-04 12:33 7.12126 125.64079 122 ft 106 kts 50°
2026-05-04 12:33 7.12737 125.64790 122 ft 159 kts 49°
2026-05-04 12:34 7.13513 125.65678 505 ft 171 kts 48°
2026-05-04 12:34 7.14294 125.66582 1138 ft 171 kts 50°
2026-05-04 12:34 7.15069 125.67416 1885 ft 162 kts 31°
2026-05-04 12:34 7.16197 125.67580 2336 ft 175 kts 347°
2026-05-04 12:35 7.17397 125.67180 2708 ft 192 kts 342°
2026-05-04 12:35 7.18726 125.66748 3071 ft 209 kts 345°
2026-05-04 12:35 7.20208 125.66370 3472 ft 227 kts 348°
2026-05-04 12:35 7.21820 125.66041 3895 ft 245 kts 351°
2026-05-04 12:36 7.23556 125.65737 4331 ft 263 kts 352°
2026-05-04 12:36 7.25400 125.65443 4971 ft 271 kts 352°
2026-05-04 12:36 7.27281 125.65156 5741 ft 273 kts 353°
2026-05-04 12:36 7.29145 125.64879 6476 ft 275 kts 353°
2026-05-04 12:37 7.31068 125.64597 7177 ft 279 kts 353°
2026-05-04 12:37 7.32996 125.64317 7847 ft 282 kts 353°
2026-05-04 12:37 7.34947 125.64033 8509 ft 285 kts 353°
2026-05-04 12:37 7.36919 125.63746 9153 ft 289 kts 353°
2026-05-04 12:38 7.38920 125.63456 9782 ft 292 kts 353°
2026-05-04 12:38 7.40967 125.63159 10382 ft 297 kts 353°
2026-05-04 12:38 7.43079 125.62854 10695 ft 313 kts 353°
2026-05-04 12:38 7.45266 125.62406 10946 ft 331 kts 341°
2026-05-04 12:39 7.47329 125.61199 11210 ft 350 kts 320°
2026-05-04 12:39 7.48954 125.59338 11583 ft 362 kts 308°
2026-05-04 12:39 7.50501 125.57297 12180 ft 366 kts 308°
2026-05-04 12:39 7.52040 125.55273 12801 ft 369 kts 308°
2026-05-04 12:40 7.53631 125.53200 13408 ft 372 kts 308°
2026-05-04 12:40 7.55219 125.51139 13977 ft 376 kts 309°
2026-05-04 12:40 7.56827 125.49059 14525 ft 380 kts 309°
2026-05-04 12:40 7.58464 125.46947 15079 ft 384 kts 309°
2026-05-04 12:41 7.60124 125.44806 15630 ft 388 kts 309°
2026-05-04 12:41 7.61801 125.42645 16170 ft 391 kts 309°
2026-05-04 12:41 7.63481 125.40482 16694 ft 395 kts 309°
2026-05-04 12:41 7.65178 125.38297 17213 ft 399 kts 309°
2026-05-04 12:42 7.66916 125.36063 17735 ft 403 kts 309°
2026-05-04 12:42 7.68647 125.33836 18245 ft 406 kts 309°
2026-05-04 12:42 7.70405 125.31572 18755 ft 409 kts 309°
2026-05-04 12:42 7.72156 125.29314 19257 ft 412 kts 309°
2026-05-04 12:43 7.73917 125.27045 19755 ft 414 kts 309°
2026-05-04 12:43 7.75707 125.24734 20244 ft 417 kts 309°
2026-05-04 12:43 7.77509 125.22408 20709 ft 419 kts 309°
2026-05-04 12:43 7.79311 125.20081 21151 ft 422 kts 309°
2026-05-04 12:44 7.81110 125.17758 21572 ft 425 kts 309°
2026-05-04 12:44 7.82959 125.15371 21996 ft 427 kts 309°
2026-05-04 12:44 7.84774 125.13026 22412 ft 430 kts 309°
2026-05-04 12:44 7.86620 125.10639 22824 ft 433 kts 309°
2026-05-04 12:45 7.88499 125.08211 23247 ft 435 kts 309°
2026-05-04 12:45 7.90358 125.05805 23649 ft 438 kts 309°
2026-05-04 12:45 7.92232 125.03381 24057 ft 441 kts 309°
2026-05-04 12:45 7.94136 125.00922 24459 ft 443 kts 309°
2026-05-04 12:46 7.96141 124.98554 24851 ft 445 kts 314°
2026-05-04 12:46 7.98329 124.96330 25255 ft 447 kts 318°
2026-05-04 12:46 8.00707 124.94251 25665 ft 448 kts 321°
2026-05-04 12:46 8.03133 124.92266 26066 ft 450 kts 322°
2026-05-04 12:47 8.05584 124.90282 26451 ft 453 kts 322°
2026-05-04 12:47 8.08066 124.88271 26814 ft 455 kts 322°
2026-05-04 12:47 8.10527 124.86275 27163 ft 458 kts 322°
2026-05-04 12:47 8.13012 124.84254 27507 ft 461 kts 322°
2026-05-04 12:48 8.15530 124.82204 27849 ft 463 kts 321°
2026-05-04 12:48 8.18023 124.80173 28183 ft 466 kts 321°
2026-05-04 12:48 8.20588 124.78082 28529 ft 468 kts 321°
2026-05-04 12:48 8.23123 124.76013 28878 ft 470 kts 321°
2026-05-04 12:49 8.25681 124.73925 29214 ft 472 kts 321°
2026-05-04 12:49 8.28244 124.71832 29543 ft 474 kts 321°
2026-05-04 12:49 8.30809 124.69737 29869 ft 476 kts 321°
2026-05-04 12:49 8.33437 124.67590 30201 ft 479 kts 321°
2026-05-04 12:50 8.36016 124.65483 30519 ft 480 kts 321°
2026-05-04 12:50 8.38634 124.63363 30821 ft 483 kts 322°
2026-05-04 12:50 8.41379 124.61331 31179 ft 483 kts 326°
2026-05-04 12:50 8.44213 124.59460 31625 ft 482 kts 329°
2026-05-04 12:51 8.47090 124.57752 32079 ft 480 kts 330°
2026-05-04 12:51 8.50003 124.56071 32526 ft 478 kts 331°
2026-05-04 12:51 8.52871 124.54424 33008 ft 477 kts 331°
2026-05-04 12:51 8.55768 124.52761 33504 ft 476 kts 331°
2026-05-04 12:52 8.58664 124.51096 34020 ft 474 kts 331°
2026-05-04 12:52 8.61528 124.49445 34525 ft 472 kts 331°
2026-05-04 12:52 8.64371 124.47805 35017 ft 470 kts 331°
2026-05-04 12:52 8.67235 124.46152 35498 ft 469 kts 331°
2026-05-04 12:53 8.70066 124.44517 35916 ft 468 kts 330°
2026-05-04 12:53 8.72898 124.42880 36296 ft 468 kts 331°
2026-05-04 12:53 8.75745 124.41235 36614 ft 468 kts 331°
2026-05-04 12:53 8.78574 124.39599 36891 ft 470 kts 331°
2026-05-04 12:54 8.81434 124.37946 37156 ft 471 kts 331°
2026-05-04 12:54 8.84252 124.36316 37410 ft 472 kts 331°
2026-05-04 12:54 8.87133 124.34650 37678 ft 473 kts 331°
2026-05-04 12:54 8.89989 124.32998 37893 ft 474 kts 330°
2026-05-04 12:55 8.92879 124.31325 37896 ft 475 kts 330°
2026-05-04 12:55 8.98644 124.27985 37897 ft 475 kts 330°
2026-05-04 12:56 8.99592 124.27436 37897 ft 475 kts 330°